Time,TemperatureF,DewpointF,PressureIn,WindDirection,WindDirectionDegrees,WindSpeedMPH,WindSpeedGustMPH,Humidity,HourlyPrecipIn,Conditions,Clouds,dailyrainin,SoftwareType,DateUTC
2013-02-09 00:01:00,32.0,27.0,30.26,ENE,73,8.0,13.0,80,0.00,,,0.42,,2013-02-09 06:01:00,
2013-02-09 00:11:00,32.0,27.0,30.26,ENE,73,8.0,13.0,80,0.00,,,0.42,,2013-02-09 06:11:00,
2013-02-09 00:21:00,32.0,27.0,30.26,ENE,73,8.0,13.0,80,0.00,,,0.42,,2013-02-09 06:21:00,
2013-02-09 00:31:00,32.0,27.0,30.26,NE,56,5.0,14.0,80,0.42,,,0.42,,2013-02-09 06:31:00,
2013-02-09 00:42:00,32.0,27.0,30.26,NE,56,5.0,14.0,80,0.42,,,0.42,,2013-02-09 06:42:00,
2013-02-09 00:52:00,32.0,26.0,30.26,East,82,11.0,14.0,79,0.42,,,0.42,,2013-02-09 06:52:00,
2013-02-09 01:01:00,32.0,26.0,30.27,ENE,71,6.0,13.0,79,0.00,,,0.00,,2013-02-09 07:01:00,
2013-02-09 01:11:00,32.0,26.0,30.27,ENE,71,6.0,13.0,79,0.00,,,0.00,,2013-02-09 07:11:00,
2013-02-09 01:21:00,32.0,26.0,30.27,ENE,71,6.0,13.0,79,0.00,,,0.00,,2013-02-09 07:21:00,
2013-02-09 01:31:00,32.0,27.0,30.27,NE,54,10.0,12.0,82,0.00,,,0.00,,2013-02-09 07:31:00,
2013-02-09 01:42:00,32.0,27.0,30.27,NE,54,10.0,12.0,82,0.00,,,0.00,,2013-02-09 07:42:00,
2013-02-09 01:52:00,32.0,27.0,30.27,NE,54,10.0,12.0,82,0.00,,,0.00,,2013-02-09 07:52:00,
2013-02-09 02:01:00,32.0,27.0,30.26,East,86,8.0,13.0,80,0.00,,,0.00,,2013-02-09 08:01:00,
2013-02-09 02:11:00,32.0,27.0,30.26,East,86,8.0,13.0,80,0.00,,,0.00,,2013-02-09 08:11:00,
2013-02-09 02:21:00,32.0,27.0,30.26,East,95,7.0,13.0,81,0.00,,,0.00,,2013-02-09 08:21:00,
2013-02-09 02:31:00,31.0,26.0,30.26,East,92,12.0,12.0,83,0.00,,,0.00,,2013-02-09 08:31:00,
2013-02-09 02:42:00,31.0,26.0,30.26,East,92,12.0,12.0,83,0.00,,,0.00,,2013-02-09 08:42:00,
2013-02-09 02:52:00,31.0,26.0,30.25,NE,56,6.0,11.0,82,0.00,,,0.00,,2013-02-09 08:52:00,
2013-02-09 03:03:00,31.0,26.0,30.25,East,82,8.0,17.0,82,0.00,,,0.00,,2013-02-09 09:03:00,
2013-02-09 03:11:00,31.0,26.0,30.25,East,82,8.0,17.0,82,0.00,,,0.00,,2013-02-09 09:11:00,
2013-02-09 03:21:00,31.0,26.0,30.25,East,92,6.0,17.0,81,0.00,,,0.00,,2013-02-09 09:21:00,
2013-02-09 03:31:00,31.0,26.0,30.25,ESE,109,8.0,14.0,81,0.00,,,0.00,,2013-02-09 09:31:00,
2013-02-09 03:42:00,31.0,26.0,30.25,ESE,109,8.0,14.0,81,0.00,,,0.00,,2013-02-09 09:42:00,
2013-02-09 03:51:00,31.0,26.0,30.25,ENE,73,6.0,14.0,82,0.00,,,0.00,,2013-02-09 09:51:00,
2013-02-09 04:01:00,31.0,26.0,30.25,East,82,5.0,13.0,82,0.00,,,0.00,,2013-02-09 10:01:00,
2013-02-09 04:11:00,31.0,26.0,30.25,East,82,5.0,13.0,82,0.00,,,0.00,,2013-02-09 10:11:00,
2013-02-09 04:21:00,31.0,26.0,30.26,East,83,7.0,13.0,82,0.00,,,0.00,,2013-02-09 10:21:00,
2013-02-09 04:31:00,31.0,26.0,30.25,NNE,23,6.0,13.0,82,0.00,,,0.00,,2013-02-09 10:31:00,
2013-02-09 04:42:00,31.0,26.0,30.25,NNE,23,6.0,13.0,82,0.00,,,0.00,,2013-02-09 10:42:00,
2013-02-09 04:51:00,31.0,26.0,30.26,ENE,64,5.0,13.0,81,0.00,,,0.00,,2013-02-09 10:51:00,
2013-02-09 05:01:00,31.0,27.0,30.27,ENE,68,7.0,12.0,84,0.00,,,0.00,,2013-02-09 11:01:00,
2013-02-09 05:11:00,31.0,27.0,30.27,ENE,68,7.0,12.0,84,0.00,,,0.00,,2013-02-09 11:11:00,
2013-02-09 05:21:00,31.0,27.0,30.27,ENE,68,7.0,12.0,84,0.00,,,0.00,,2013-02-09 11:21:00,
2013-02-09 05:31:00,31.0,27.0,30.27,East,79,6.0,13.0,84,0.00,,,0.00,,2013-02-09 11:31:00,
2013-02-09 05:42:00,31.0,27.0,30.27,East,79,6.0,13.0,84,0.00,,,0.00,,2013-02-09 11:42:00,
2013-02-09 05:52:00,31.0,27.0,30.27,East,79,6.0,13.0,84,0.00,,,0.00,,2013-02-09 11:52:00,
2013-02-09 06:02:00,31.0,26.0,30.27,ENE,75,5.0,13.0,82,0.00,,,0.00,,2013-02-09 12:02:00,
2013-02-09 06:11:00,31.0,26.0,30.27,ENE,75,5.0,13.0,82,0.00,,,0.00,,2013-02-09 12:11:00,
2013-02-09 06:21:00,31.0,26.0,30.28,ENE,78,5.0,13.0,82,0.00,,,0.00,,2013-02-09 12:21:00,
2013-02-09 06:32:00,31.0,26.0,30.28,NE,37,4.0,12.0,82,0.00,,,0.00,,2013-02-09 12:32:00,
2013-02-09 06:42:00,31.0,26.0,30.28,NE,37,4.0,12.0,82,0.00,,,0.00,,2013-02-09 12:42:00,
2013-02-09 06:52:00,31.0,26.0,30.29,NE,55,10.0,12.0,82,0.00,,,0.00,,2013-02-09 12:52:00,
2013-02-09 07:02:00,31.0,26.0,30.29,East,88,5.0,13.0,81,0.00,,,0.00,,2013-02-09 13:02:00,
2013-02-09 07:11:00,31.0,26.0,30.29,East,88,5.0,13.0,81,0.00,,,0.00,,2013-02-09 13:11:00,
2013-02-09 07:21:00,31.0,26.0,30.29,East,100,7.0,13.0,81,0.00,,,0.00,,2013-02-09 13:21:00,
2013-02-09 07:32:00,30.0,25.0,30.29,East,90,7.0,12.0,83,0.00,,,0.00,,2013-02-09 13:32:00,
2013-02-09 07:42:00,30.0,25.0,30.29,East,90,7.0,12.0,83,0.00,,,0.00,,2013-02-09 13:42:00,
2013-02-09 07:51:00,30.0,25.0,30.29,East,90,7.0,12.0,83,0.00,,,0.00,,2013-02-09 13:51:00,
2013-02-09 08:01:00,31.0,26.0,30.29,East,92,7.0,13.0,81,0.00,,,0.00,,2013-02-09 14:01:00,
2013-02-09 08:11:00,31.0,26.0,30.29,East,92,7.0,13.0,81,0.00,,,0.00,,2013-02-09 14:11:00,
2013-02-09 08:21:00,31.0,26.0,30.29,East,85,11.0,13.0,80,0.00,,,0.00,,2013-02-09 14:21:00,
2013-02-09 08:31:00,31.0,26.0,30.29,East,96,7.0,16.0,83,0.00,,,0.00,,2013-02-09 14:31:00,
2013-02-09 08:42:00,31.0,26.0,30.29,East,96,7.0,16.0,83,0.00,,,0.00,,2013-02-09 14:42:00,
2013-02-09 08:52:00,32.0,27.0,30.28,East,85,11.0,16.0,80,0.00,,,0.00,,2013-02-09 14:52:00,
2013-02-09 09:02:00,32.0,26.0,30.30,SE,141,7.0,14.0,78,0.00,,,0.00,,2013-02-09 15:02:00,
2013-02-09 09:11:00,32.0,26.0,30.30,SE,141,7.0,14.0,78,0.00,,,0.00,,2013-02-09 15:11:00,
2013-02-09 09:21:00,32.0,27.0,30.31,ENE,71,6.0,14.0,80,0.00,,,0.00,,2013-02-09 15:21:00,
2013-02-09 09:32:00,33.0,27.0,30.30,ESE,123,5.0,12.0,79,0.00,,,0.00,,2013-02-09 15:32:00,
2013-02-09 09:42:00,33.0,27.0,30.30,ESE,123,5.0,12.0,79,0.00,,,0.00,,2013-02-09 15:42:00,
2013-02-09 09:51:00,33.0,26.0,30.30,ESE,113,3.0,12.0,75,0.00,,,0.00,,2013-02-09 15:51:00,
2013-02-09 10:01:00,33.0,27.0,30.29,East,95,6.0,10.0,77,0.00,,,0.00,,2013-02-09 16:01:00,
2013-02-09 10:11:00,33.0,27.0,30.29,East,95,6.0,10.0,77,0.00,,,0.00,,2013-02-09 16:11:00,
2013-02-09 10:22:00,34.0,27.0,30.29,ESE,104,5.0,10.0,75,0.00,,,0.00,,2013-02-09 16:22:00,
2013-02-09 10:31:00,34.0,27.0,30.29,ESE,104,5.0,10.0,75,0.00,,,0.00,,2013-02-09 16:31:00,
2013-02-09 10:42:00,34.0,27.0,30.29,ESE,104,5.0,10.0,75,0.00,,,0.00,,2013-02-09 16:42:00,
2013-02-09 10:51:00,36.0,27.0,30.28,ESE,103,6.0,11.0,70,0.00,,,0.00,,2013-02-09 16:51:00,
2013-02-09 11:01:00,37.0,28.0,30.27,ESE,109,3.0,11.0,71,0.00,,,0.00,,2013-02-09 17:01:00,
2013-02-09 11:11:00,37.0,28.0,30.27,ESE,109,3.0,11.0,71,0.00,,,0.00,,2013-02-09 17:11:00,
2013-02-09 11:21:00,37.0,27.0,30.25,SE,131,3.0,11.0,68,0.00,,,0.00,,2013-02-09 17:21:00,
2013-02-09 11:32:00,38.0,28.0,30.26,ENE,66,4.0,14.0,67,0.00,,,0.00,,2013-02-09 17:32:00,
2013-02-09 11:42:00,38.0,28.0,30.26,ENE,66,4.0,14.0,67,0.00,,,0.00,,2013-02-09 17:42:00,
2013-02-09 11:52:00,38.0,28.0,30.26,ENE,66,4.0,14.0,67,0.00,,,0.00,,2013-02-09 17:52:00,
2013-02-09 12:02:00,41.0,29.0,30.23,SE,143,8.0,13.0,62,0.00,,,0.00,,2013-02-09 18:02:00,
2013-02-09 12:12:00,41.0,29.0,30.23,SE,143,8.0,13.0,62,0.00,,,0.00,,2013-02-09 18:12:00,
2013-02-09 12:23:00,42.0,29.0,30.22,East,95,7.0,13.0,60,0.00,,,0.00,,2013-02-09 18:23:00,
2013-02-09 12:32:00,43.0,30.0,30.20,ESE,103,10.0,14.0,60,0.00,,,0.00,,2013-02-09 18:32:00,
2013-02-09 12:42:00,43.0,30.0,30.20,ESE,103,10.0,14.0,60,0.00,,,0.00,,2013-02-09 18:42:00,
2013-02-09 12:52:00,43.0,28.0,30.20,SE,130,6.0,14.0,56,0.00,,,0.00,,2013-02-09 18:52:00,
2013-02-09 13:01:00,44.0,28.0,30.19,ESE,107,6.0,14.0,54,0.00,,,0.00,,2013-02-09 19:01:00,
2013-02-09 13:11:00,44.0,28.0,30.19,ESE,107,6.0,14.0,54,0.00,,,0.00,,2013-02-09 19:11:00,
2013-02-09 13:22:00,45.0,29.0,30.19,SSW,192,2.0,14.0,54,0.00,,,0.00,,2013-02-09 19:22:00,
2013-02-09 13:31:00,45.0,28.0,30.17,ESE,109,2.0,11.0,51,0.00,,,0.00,,2013-02-09 19:31:00,
2013-02-09 13:42:00,45.0,28.0,30.17,ESE,109,2.0,11.0,51,0.00,,,0.00,,2013-02-09 19:42:00,
2013-02-09 13:52:00,46.0,28.0,30.17,ESE,109,3.0,11.0,50,0.00,,,0.00,,2013-02-09 19:52:00,
2013-02-09 14:01:00,46.0,28.0,30.16,SE,133,3.0,13.0,49,0.00,,,0.00,,2013-02-09 20:01:00,
2013-02-09 14:11:00,46.0,28.0,30.16,SE,133,3.0,13.0,49,0.00,,,0.00,,2013-02-09 20:11:00,
2013-02-09 14:21:00,47.0,28.0,30.14,SE,130,3.0,13.0,48,0.00,,,0.00,,2013-02-09 20:21:00,
2013-02-09 14:31:00,47.0,27.0,30.14,South,169,2.0,7.0,46,0.00,,,0.00,,2013-02-09 20:31:00,
2013-02-09 14:42:00,47.0,27.0,30.14,South,169,2.0,7.0,46,0.00,,,0.00,,2013-02-09 20:42:00,
2013-02-09 14:52:00,48.0,29.0,30.13,South,169,3.0,7.0,47,0.00,,,0.00,,2013-02-09 20:52:00,
2013-02-09 15:02:00,48.0,28.0,30.13,SE,137,3.0,6.0,46,0.00,,,0.00,,2013-02-09 21:02:00,
2013-02-09 15:11:00,48.0,28.0,30.13,SE,137,3.0,6.0,46,0.00,,,0.00,,2013-02-09 21:11:00,
2013-02-09 15:21:00,48.0,28.0,30.13,West,267,1.0,6.0,45,0.00,,,0.00,,2013-02-09 21:21:00,
2013-02-09 15:31:00,48.0,28.0,30.14,SSE,162,1.0,7.0,45,0.00,,,0.00,,2013-02-09 21:31:00,
2013-02-09 15:41:00,48.0,28.0,30.14,SSE,162,1.0,7.0,45,0.00,,,0.00,,2013-02-09 21:41:00,
2013-02-09 15:52:00,48.0,28.0,30.13,SW,217,2.0,7.0,46,0.00,,,0.00,,2013-02-09 21:52:00,
2013-02-09 16:01:00,48.0,28.0,30.12,SE,131,3.0,8.0,46,0.00,,,0.00,,2013-02-09 22:01:00,
2013-02-09 16:11:00,48.0,28.0,30.12,SE,131,3.0,8.0,46,0.00,,,0.00,,2013-02-09 22:11:00,
2013-02-09 16:21:00,48.0,30.0,30.11,SE,126,2.0,8.0,49,0.00,,,0.00,,2013-02-09 22:21:00,
2013-02-09 16:32:00,48.0,28.0,30.10,ESE,106,3.0,8.0,46,0.00,,,0.00,,2013-02-09 22:32:00,
2013-02-09 16:42:00,48.0,28.0,30.10,ESE,106,3.0,8.0,46,0.00,,,0.00,,2013-02-09 22:42:00,
2013-02-09 16:52:00,48.0,28.0,30.10,East,100,5.0,8.0,45,0.00,,,0.00,,2013-02-09 22:52:00,
2013-02-09 17:01:00,47.0,28.0,30.10,East,97,1.0,7.0,47,0.00,,,0.00,,2013-02-09 23:01:00,
2013-02-09 17:11:00,47.0,28.0,30.10,East,97,1.0,7.0,47,0.00,,,0.00,,2013-02-09 23:11:00,
2013-02-09 17:21:00,47.0,29.0,30.10,East,99,1.0,7.0,50,0.00,,,0.00,,2013-02-09 23:21:00,
2013-02-09 17:31:00,46.0,29.0,30.10,East,97,2.0,7.0,51,0.00,,,0.00,,2013-02-09 23:31:00,
2013-02-09 17:42:00,46.0,29.0,30.10,East,97,2.0,7.0,51,0.00,,,0.00,,2013-02-09 23:42:00,
2013-02-09 17:52:00,45.0,29.0,30.09,East,99,3.0,7.0,53,0.00,,,0.00,,2013-02-09 23:52:00,
2013-02-09 18:02:00,44.0,29.0,30.09,East,99,4.0,5.0,55,0.00,,,0.00,,2013-02-10 00:02:00,
2013-02-09 18:11:00,44.0,29.0,30.09,East,99,4.0,5.0,55,0.00,,,0.00,,2013-02-10 00:11:00,
2013-02-09 18:21:00,44.0,28.0,30.08,ESE,110,2.0,5.0,53,0.00,,,0.00,,2013-02-10 00:21:00,
2013-02-09 18:32:00,44.0,29.0,30.08,ESE,109,3.0,6.0,55,0.00,,,0.00,,2013-02-10 00:32:00,
2013-02-09 18:42:00,44.0,29.0,30.08,ESE,109,3.0,6.0,55,0.00,,,0.00,,2013-02-10 00:42:00,
2013-02-09 18:52:00,43.0,29.0,30.07,ESE,104,6.0,6.0,57,0.00,,,0.00,,2013-02-10 00:52:00,
2013-02-09 19:01:00,42.0,30.0,30.07,ESE,102,5.0,6.0,61,0.00,,,0.00,,2013-02-10 01:01:00,
2013-02-09 19:12:00,42.0,30.0,30.07,ESE,102,5.0,6.0,61,0.00,,,0.00,,2013-02-10 01:12:00,
2013-02-09 19:21:00,42.0,30.0,30.07,ESE,102,5.0,6.0,61,0.00,,,0.00,,2013-02-10 01:21:00,
2013-02-09 19:31:00,42.0,30.0,30.06,ESE,109,3.0,6.0,63,0.00,,,0.00,,2013-02-10 01:31:00,
2013-02-09 19:42:00,42.0,30.0,30.06,ESE,109,3.0,6.0,63,0.00,,,0.00,,2013-02-10 01:42:00,
2013-02-09 19:52:00,42.0,30.0,30.06,ESE,109,3.0,6.0,63,0.00,,,0.00,,2013-02-10 01:52:00,
2013-02-09 20:01:00,43.0,32.0,30.06,ESE,112,5.0,7.0,64,0.00,,,0.00,,2013-02-10 02:01:00,
2013-02-09 20:11:00,43.0,32.0,30.06,ESE,112,5.0,7.0,64,0.00,,,0.00,,2013-02-10 02:11:00,
2013-02-09 20:22:00,43.0,31.0,30.05,ESE,116,7.0,7.0,62,0.00,,,0.00,,2013-02-10 02:22:00,
2013-02-09 20:32:00,43.0,31.0,30.05,SE,131,2.0,8.0,62,0.00,,,0.00,,2013-02-10 02:32:00,
2013-02-09 20:41:00,43.0,31.0,30.05,SE,131,2.0,8.0,62,0.00,,,0.00,,2013-02-10 02:41:00,
2013-02-09 20:52:00,43.0,31.0,30.05,SE,131,2.0,8.0,62,0.00,,,0.00,,2013-02-10 02:52:00,
2013-02-09 21:01:00,43.0,30.0,30.05,SE,140,3.0,8.0,60,0.00,,,0.00,,2013-02-10 03:01:00,
2013-02-09 21:11:00,43.0,30.0,30.05,SE,140,3.0,8.0,60,0.00,,,0.00,,2013-02-10 03:11:00,
2013-02-09 21:21:00,44.0,31.0,30.04,SE,144,4.0,8.0,60,0.00,,,0.00,,2013-02-10 03:21:00,
2013-02-09 21:32:00,44.0,31.0,30.04,SE,143,3.0,7.0,59,0.00,,,0.00,,2013-02-10 03:32:00,
2013-02-09 21:41:00,44.0,31.0,30.04,SE,143,3.0,7.0,59,0.00,,,0.00,,2013-02-10 03:41:00,
2013-02-09 21:52:00,44.0,29.0,30.04,SSE,164,1.0,7.0,56,0.00,,,0.00,,2013-02-10 03:52:00,
2013-02-09 22:01:00,44.0,29.0,30.04,SSE,164,3.0,7.0,56,0.00,,,0.00,,2013-02-10 04:01:00,
2013-02-09 22:11:00,44.0,29.0,30.04,SSE,164,3.0,7.0,56,0.00,,,0.00,,2013-02-10 04:11:00,
2013-02-09 22:21:00,44.0,30.0,30.03,SSE,157,3.0,7.0,57,0.00,,,0.00,,2013-02-10 04:21:00,
2013-02-09 22:32:00,44.0,30.0,30.03,SSE,157,2.0,7.0,58,0.00,,,0.00,,2013-02-10 04:32:00,
2013-02-09 22:41:00,44.0,30.0,30.03,SSE,157,2.0,7.0,58,0.00,,,0.00,,2013-02-10 04:41:00,
2013-02-09 22:52:00,45.0,29.0,30.02,SSE,168,3.0,7.0,54,0.00,,,0.00,,2013-02-10 04:52:00,
2013-02-09 23:01:00,45.0,31.0,30.01,SSE,162,4.0,7.0,57,0.00,,,0.00,,2013-02-10 05:01:00,
2013-02-09 23:11:00,45.0,31.0,30.01,SSE,162,4.0,7.0,57,0.00,,,0.00,,2013-02-10 05:11:00,
2013-02-09 23:22:00,45.0,31.0,30.01,SSE,157,5.0,7.0,58,0.00,,,0.00,,2013-02-10 05:22:00,
2013-02-09 23:31:00,45.0,30.0,30.01,SSE,160,3.0,8.0,56,0.00,,,0.00,,2013-02-10 05:31:00,
2013-02-09 23:41:00,45.0,30.0,30.01,SSE,160,3.0,8.0,56,0.00,,,0.00,,2013-02-10 05:41:00,
2013-02-09 23:52:00,45.0,31.0,30.00,SSE,168,3.0,8.0,58,0.00,,,0.00,,2013-02-10 05:52:00,